[[{"header":{"parameterUnit":"m.s-1","parameterCategory":1,"la1":30.2991,"la2":30.254,"lo1":-89.0895,"lo2":-89.0444,"dy":0.0017,"dx":0.0017,"nx":28,"ny":28,"refTime":"2024-03-24T03:00:00:Z","depth":0,"parameterNumber":2,"parameterNumberName":"U-component_of_WINDS"},"data":[0,0,0,0,0,0,0,0,0,0,0,0,0,0,0,0,0,0,0,0,0,0,0,0,0,0,0,0,0,0,0,0,0,0,0,0,0,0,0,0,0,0,0,0,0,0,0,0,0,0,0,0,0,0,0,0,0,0,-5.703,-5.7031,0,-5.7065,-5.7066,-5.7066,-5.6992,-5.699,-5.6987,-5.6985,-5.7019,-5.7022,-5.7025,0,0,0,0,0,0,0,0,0,0,0,0,0,-5.6899,-5.6902,-5.703,-5.7031,-5.7031,-5.7065,-5.7066,-5.7066,-5.6993,-5.699,-5.6987,-5.6984,-5.7018,-5.7021,-5.7025,0,0,0,0,0,0,0,0,0,0,0,0,0,-5.6947,-5.6902,-5.703,-5.6999,-5.6996,-5.7065,-5.7066,-5.7066,-5.6993,-5.699,-5.6986,-5.6983,-5.7016,-5.7021,-5.7026,-5.7126,0,0,-5.704,-5.7042,0,0,0,0,0,0,0,0,-5.6944,-5.6952,-5.7003,-5.7001,-5.6998,-5.7021,-5.7031,-5.7086,-5.6994,-5.6994,-5.6985,-5.6981,-5.7022,-5.7026,-5.704,-5.7128,-5.7129,-5.704,-5.7043,-5.7045,-5.7046,0,0,0,0,0,0,0,-5.6941,-5.695,-5.7044,-5.7004,-5.7001,-5.6982,-5.6985,-5.7042,-5.7028,-5.6994,-5.6989,-5.6994,-5.702,-5.7036,-5.7041,-5.713,-5.704,-5.7044,-5.7047,-5.7049,-5.73,-5.7304,0,0,0,0,0,0,-5.6942,-5.6948,-5.7043,-5.7045,-5.6962,-5.6988,-5.6991,-5.7017,-5.7027,-5.7025,-5.6997,-5.699,-5.703,-5.7035,-5.7042,-5.7158,-5.7045,-5.7049,-5.7052,-5.7296,-5.7301,-5.7305,0,0,0,0,0,0,-5.6939,-5.6951,-5.7042,-5.6995,-5.7005,-5.6994,-5.7024,-5.702,-5.7035,-5.7029,-5.7026,-5.7016,-5.7027,-5.7035,-5.7106,-5.7158,-5.7052,-5.7056,-5.7292,-5.7298,-5.7303,-5.7393,0,0,0,0,0,0,-5.6936,-5.6951,-5.6989,-5.6996,-5.7008,-5.7105,-5.7027,-5.7023,-5.7044,-5.7036,-5.7046,-5.7044,-5.7025,-5.7099,-5.711,-5.7163,-5.7059,-5.7287,-5.7295,-5.7301,-5.7385,-5.7401,-5.7415,0,0,0,0,0,-5.6932,-5.7012,-5.6991,-5.7003,-5.7055,-5.7109,-5.7115,-5.7092,-5.7049,-5.7086,-5.7083,-5.7044,-5.7152,-5.7107,-5.7119,-5.7174,-5.7283,-5.7292,-5.7301,-5.7379,-5.7398,-5.7415,0,0,0,0,0,0,-5.701,-5.7013,-5.6989,-5.7075,-5.7092,-5.7096,-5.7143,-5.7113,-5.7142,-5.7133,-5.7103,-5.7106,-5.7182,-5.7186,-5.7135,-5.7271,-5.721,-5.7222,-5.7265,-5.7284,-5.7298,-5.7294,-5.7063,0,0,0,0,0,-5.7038,-5.7081,-5.7081,-5.7157,-5.7167,-5.7154,-5.7176,-5.7157,-5.7173,-5.718,-5.7181,-5.7198,-5.7235,-5.726,-5.7295,-5.7387,-5.7387,-5.7431,-5.7446,-5.7458,-5.7467,-5.7515,-5.7534,-5.7334,-5.7334,-5.7334,0,0,-5.7094,-5.7101,-5.713,-5.7173,-5.7184,-5.7229,-5.716,-5.7211,-5.7243,-5.7187,-5.7253,-5.7256,-5.7272,-5.7354,-5.739,-5.7359,-5.7523,-5.7469,-5.7479,-5.7481,-5.7526,-5.7545,-5.7561,-5.734,-5.7339,-5.7338,0,0,-5.7219,-5.723,-5.7293,-5.7307,-5.7325,-5.7316,-5.7332,-5.7341,-5.734,-5.7407,-5.7366,-5.7405,-5.747,-5.7483,-5.7499,-5.7632,-5.7597,-5.7645,-5.772,-5.7767,-5.7783,-5.7797,-5.7842,-5.7859,-5.7655,-5.7655,-5.7655,0,-5.7286,-5.7353,-5.733,-5.7383,-5.7403,-5.7356,-5.742,-5.7434,-5.7462,-5.7476,-5.7443,-5.7524,-5.7532,-5.7615,-5.7648,-5.7664,-5.7679,-5.7641,-5.7783,-5.7796,-5.7809,-5.7851,-5.7869,-5.766,-5.766,-5.7659,-5.7659,0,-5.7433,-5.7481,-5.753,-5.7559,-5.7585,-5.7643,-5.7629,-5.7658,-5.7638,-5.7633,-5.7701,-5.771,-5.7744,-5.7764,-5.7745,-5.7845,-5.7825,-5.7788,-5.7725,-5.7834,-5.7873,-5.7889,-5.7668,-5.7666,-5.7665,-5.7663,0,0,-5.7604,-5.7622,-5.764,-5.7653,-5.7671,-5.7707,-5.7764,-5.7799,-5.7823,-5.7846,-5.7891,-5.7949,-5.7915,-5.7933,-5.7915,-5.7957,-5.806,-5.7914,-5.7914,-5.7938,-5.8168,-5.8193,-5.8213,-5.8039,-5.8042,-5.8044,-5.8166,0,-5.7726,-5.7823,-5.7805,-5.79,-5.7942,-5.7901,-5.795,-5.7966,-5.7964,-5.8,-5.7997,-5.8037,-5.7991,-5.8001,-5.8041,-5.8039,-5.8105,-5.803,-5.8078,-5.808,-5.8071,-5.8234,-5.826,-5.8374,-5.8181,-5.8184,-5.8186,0,-5.7879,-5.7908,-5.8007,-5.8019,-5.8036,-5.808,-5.8111,-5.8147,-5.8165,-5.816,-5.8182,-5.8156,-5.8212,-5.8153,-5.8229,-5.8179,-5.8198,-5.82,-5.8204,-5.8204,-5.8136,-5.8234,-5.841,-5.8426,-5.8211,-5.8209,-5.8207,0,-5.7989,-5.8054,-5.8121,-5.8134,-5.815,-5.8182,-5.819,-5.8205,-5.8228,-5.8255,-5.8269,-5.8304,-5.8321,-5.8348,-5.8332,-5.8291,-5.8411,-5.835,-5.8406,-5.8407,-5.8429,-5.8427,-5.8607,-5.8449,-5.8449,-5.8448,-5.8448,0,-5.8124,-5.8186,-5.8171,-5.8211,-5.8279,-5.8259,-5.8327,-5.833,-5.8344,-5.8384,-5.8352,-5.8391,-5.837,-5.8407,-5.8396,-5.8459,-5.8469,-5.8465,-5.8461,-5.8466,-5.8466,-5.8474,-5.8465,-5.8453,-5.8452,-5.8451,-5.845,0,-5.8257,-5.825,-5.832,-5.8331,-5.8335,-5.8384,-5.8393,-5.8431,-5.8428,-5.848,-5.8491,-5.8485,-5.8527,-5.8516,-5.8562,-5.8554,-5.8633,-5.8621,-5.8627,-5.8622,-5.8678,-5.8672,-5.8866,-5.8889,-5.8721,-5.8722,-5.8724,0,-5.8341,-5.8387,-5.8404,-5.8429,-5.844,-5.8481,-5.8505,-5.8488,-5.8513,-5.8539,-5.8573,-5.8613,-5.8643,-5.8712,-5.8712,-5.8747,-5.8732,-5.8799,-5.8737,-5.8741,-5.8729,-5.8725,-5.8729,-5.8809,-5.8811,-5.8813,-5.8814,0,-5.849,-5.8485,-5.852,-5.8555,-5.8584,-5.861,-5.8633,-5.8655,-5.864,-5.8671,-5.8714,-5.8738,-5.8785,-5.8824,-5.8856,-5.8864,-5.8836,-5.8834,-5.8848,-5.8851,-5.8852,-5.8849,-5.8656,-5.8828,-5.8827,-5.8826,-5.8825,-5.8825,-5.8599,-5.8638,-5.8656,-5.8696,-5.8712,-5.8735,-5.8771,-5.8773,-5.8809,-5.8846,-5.8835,-5.8884,-5.8902,-5.8943,-5.8955,-5.8993,-5.8967,-5.8989,-5.8993,-5.8998,-5.9003,-5.885,-5.8999,-5.8999,-5.8998,-5.8998,-5.8998,0,-5.8743,-5.8754,-5.8791,-5.8825,-5.8857,-5.8831,-5.8856,-5.8883,-5.8927,-5.8947,-5.8978,-5.9027,-5.9066,-5.907,-5.9106,-5.9135,-5.9123,-5.9145,-5.914,-5.9142,-5.9025,-5.9008,-5.9154,-5.9154,-5.9154,-5.9154,-5.9154,-5.9154,-5.8822,-5.8886,-5.8883,-5.8955,-5.8965,-5.9013,-5.9029,-5.905,-5.9065,-5.9122,-5.9154,-5.9158,-5.9171,-5.9208,-5.9242,-5.9242,-5.9255,-5.9281,-5.9276,-5.9166,-5.915,-5.9135,-5.9118,-5.9285,-5.9285,-5.9389,-5.939,-5.9391]},{"header":{"parameterUnit":"m.s-1","parameterCategory":1,"la1":30.2991,"la2":30.254,"lo1":-89.0895,"lo2":-89.0444,"dy":0.0017,"dx":0.0017,"nx":28,"ny":28,"refTime":"2024-03-24T03:00:00:Z","depth":0,"parameterNumber":3,"parameterNumberName":"V-component_of_WINDS"},"data":[0,0,0,0,0,0,0,0,0,0,0,0,0,0,0,0,0,0,0,0,0,0,0,0,0,0,0,0,0,0,0,0,0,0,0,0,0,0,0,0,0,0,0,0,0,0,0,0,0,0,0,0,0,0,0,0,0,0,3.1558,3.1559,0,3.1575,3.1575,3.1575,3.1607,3.1608,3.1609,3.1609,3.162,3.162,3.162,0,0,0,0,0,0,0,0,0,0,0,0,0,3.1552,3.1552,3.1558,3.1559,3.1559,3.1574,3.1575,3.1575,3.1607,3.1608,3.1609,3.161,3.162,3.162,3.162,0,0,0,0,0,0,0,0,0,0,0,0,0,3.156,3.1552,3.1558,3.1577,3.1579,3.1574,3.1575,3.1575,3.1607,3.1608,3.1609,3.161,3.1621,3.162,3.162,3.1597,0,0,3.1618,3.1618,0,0,0,0,0,0,0,0,3.156,3.156,3.1574,3.1576,3.1578,3.159,3.1577,3.1582,3.1607,3.1596,3.1609,3.161,3.1609,3.161,3.161,3.1597,3.1598,3.1618,3.1618,3.1618,3.1617,0,0,0,0,0,0,0,3.1559,3.156,3.1565,3.1574,3.1576,3.1583,3.1586,3.1578,3.1597,3.1597,3.16,3.1601,3.161,3.1611,3.1611,3.1598,3.1618,3.1618,3.1617,3.1617,3.1569,3.1568,0,0,0,0,0,0,3.1556,3.1559,3.1564,3.1565,3.1571,3.1583,3.1585,3.1585,3.1597,3.16,3.16,3.1603,3.1611,3.1611,3.1611,3.1587,3.1618,3.1617,3.1617,3.157,3.1569,3.1568,0,0,0,0,0,0,3.1556,3.1557,3.1563,3.1563,3.1564,3.1582,3.1581,3.1585,3.1585,3.16,3.1603,3.1598,3.1612,3.1612,3.1601,3.1587,3.1617,3.1616,3.1571,3.157,3.1568,3.1536,0,0,0,0,0,0,3.1556,3.1556,3.1548,3.1563,3.1564,3.1554,3.158,3.1584,3.1585,3.1588,3.1598,3.16,3.1613,3.1602,3.16,3.1587,3.1616,3.1572,3.157,3.1569,3.1539,3.1534,3.153,0,0,0,0,0,3.1556,3.1537,3.1548,3.1548,3.1555,3.1553,3.1554,3.157,3.1584,3.1576,3.1585,3.16,3.1589,3.16,3.1599,3.1586,3.1573,3.1571,3.1569,3.154,3.1535,3.153,0,0,0,0,0,0,3.1519,3.1539,3.1551,3.1537,3.1544,3.1559,3.1549,3.1563,3.1564,3.1567,3.1585,3.1587,3.1574,3.1579,3.159,3.1565,3.1584,3.1581,3.1562,3.1557,3.1553,3.1552,3.1616,0,0,0,0,0,3.1509,3.1507,3.1525,3.1511,3.1514,3.1531,3.153,3.1543,3.1549,3.1551,3.156,3.1564,3.1562,3.156,3.1558,3.154,3.1542,3.153,3.1526,3.1522,3.1519,3.1511,3.1506,3.156,3.156,3.156,0,0,3.1489,3.15,3.1497,3.1504,3.151,3.1507,3.1532,3.1527,3.1525,3.155,3.1541,3.1547,3.1553,3.1539,3.1533,3.1542,3.1505,3.1519,3.1516,3.1516,3.1508,3.1503,3.1499,3.1559,3.1559,3.1559,0,0,3.1451,3.1459,3.1449,3.1456,3.1466,3.1477,3.1475,3.1489,3.1495,3.1486,3.1506,3.1502,3.1498,3.1502,3.1503,3.1469,3.1483,3.1468,3.1445,3.1437,3.1433,3.1429,3.1417,3.1413,3.1466,3.1466,3.1466,0,3.1424,3.1421,3.1441,3.1436,3.1439,3.1464,3.1454,3.1458,3.1466,3.1467,3.1478,3.1475,3.148,3.1468,3.146,3.146,3.1458,3.1467,3.1432,3.1428,3.1425,3.1414,3.141,3.1464,3.1464,3.1464,3.1464,0,3.1388,3.1386,3.1376,3.1387,3.1388,3.138,3.1398,3.1397,3.141,3.142,3.1412,3.142,3.1422,3.142,3.1431,3.1409,3.1415,3.1429,3.1448,3.1418,3.1408,3.1404,3.1461,3.1462,3.1462,3.1463,0,0,3.1326,3.1349,3.1345,3.1351,3.1365,3.1363,3.1356,3.136,3.1359,3.1364,3.1359,3.1356,3.137,3.1371,3.1383,3.1376,3.135,3.1391,3.1391,3.1383,3.1328,3.1317,3.1312,3.136,3.1359,3.1358,3.1327,0,3.1291,3.1283,3.1302,3.1288,3.1287,3.1311,3.1306,3.1313,3.1323,3.1323,3.1333,3.1331,3.1349,3.135,3.1344,3.1354,3.1339,3.1357,3.1354,3.1354,3.1352,3.1307,3.1296,3.1266,3.1324,3.1323,3.1322,0,3.1249,3.1255,3.1242,3.1259,3.1258,3.1253,3.1259,3.1259,3.1268,3.1275,3.1279,3.1294,3.1288,3.1307,3.1299,3.1311,3.1311,3.1316,3.1315,3.1315,3.1336,3.1306,3.1257,3.1253,3.1316,3.1317,3.1317,0,3.1205,3.121,3.1203,3.1207,3.1226,3.1222,3.1229,3.124,3.1242,3.1246,3.1248,3.1251,3.1252,3.1254,3.127,3.1282,3.126,3.128,3.1266,3.1266,3.126,3.126,3.121,3.126,3.126,3.126,3.126,0,3.1165,3.1156,3.1185,3.118,3.1172,3.1193,3.1184,3.1193,3.1203,3.12,3.1221,3.1218,3.1239,3.1238,3.125,3.1242,3.1243,3.1248,3.1252,3.1247,3.1246,3.1247,3.1249,3.1259,3.1259,3.1259,3.1259,0,3.1115,3.1134,3.1128,3.1148,3.1152,3.1145,3.1161,3.1158,3.117,3.1167,3.1167,3.1186,3.1186,3.1203,3.1205,3.1214,3.1201,3.1207,3.1198,3.12,3.1186,3.1187,3.1135,3.1129,3.1182,3.1181,3.1181,0,3.1087,3.1082,3.1101,3.1103,3.111,3.1111,3.1113,3.1135,3.1136,3.1147,3.1143,3.1145,3.1149,3.1148,3.1161,3.1164,3.1171,3.1152,3.1171,3.1167,3.1171,3.1172,3.1171,3.1148,3.1148,3.1147,3.1147,0,3.1038,3.1048,3.1052,3.1059,3.1063,3.1069,3.1076,3.1076,3.1099,3.11,3.1102,3.1104,3.1109,3.1111,3.1117,3.1123,3.1139,3.1141,3.1138,3.1133,3.1128,3.1131,3.1188,3.1142,3.1142,3.1143,3.1143,3.1143,3.0999,3.0996,3.101,3.1013,3.1022,3.1029,3.1028,3.1041,3.1043,3.105,3.1062,3.1063,3.1073,3.1082,3.1088,3.1088,3.1097,3.1092,3.1091,3.109,3.1087,3.1128,3.1089,3.1089,3.1089,3.1089,3.1089,0,3.0951,3.0962,3.0965,3.0976,3.098,3.0996,3.1006,3.1007,3.1008,3.1017,3.102,3.1023,3.1026,3.104,3.1044,3.1042,3.1049,3.1042,3.1042,3.1044,3.1079,3.1081,3.1036,3.1036,3.1036,3.1036,3.1036,3.1036,3.0926,3.0922,3.0934,3.0935,3.0945,3.0947,3.0951,3.0958,3.0966,3.0969,3.0972,3.0982,3.0993,3.0999,3.1002,3.1006,3.1007,3.0998,3.1004,3.1036,3.1041,3.1046,3.1049,3.0998,3.0998,3.097,3.0969,3.0969]}]]